Wind_Speed
38 38 38 36 35 35 35 34 32 32 33 34 35 36 36 35 34 37 38 35 35 35 35 36 37 37 37 36 36 36 36 36 36 36 35 36 37 37 36 36 36 35 33 31 31 32 33 34 34 33 32 32 33 33 32 32 34 34 32 33 34 32 30 28 29 30 29 27 26 27 30 29 26 25 27 29 31 31 28 25 26 27 29 29 30 31 32
37 36 36 34 33 34 35 37 36 34 34 34 35 36 37 36 36 38 39 37 36 37 38 39 40 40 41 41 42 42 42 42 42 42 41 40 41 41 41 40 40 39 38 37 36 34 35 36 37 37 36 34 34 34 35 37 38 36 34 34 34 33 30 31 33 33 34 34 31 28 31 33 30 29 29 29 30 31 31 29 30 31 32 33 35 36 36
36 35 34 34 34 34 36 38 38 37 37 37 38 38 38 39 40 41 41 40 39 40 42 44 45 45 46 46 47 46 46 45 45 45 45 45 46 46 46 46 45 43 42 41 38 35 35 35 36 37 36 35 35 36 37 38 38 36 35 35 35 34 33 33 35 35 35 35 33 33 35 36 36 37 37 35 35 35 37 38 39 38 38 38 39 40 40
37 37 36 36 36 36 37 39 40 41 41 41 41 41 41 42 42 43 43 44 44 46 47 48 49 50 50 50 50 49 48 47 47 47 46 47 48 49 49 49 48 46 46 46 45 44 42 37 33 33 33 34 34 35 36 38 39 40 39 37 36 36 35 35 35 36 36 36 35 37 39 39 40 41 40 40 40 40 41 43 44 43 43 42 42 42 41
39 39 39 38 38 38 38 38 39 40 40 40 41 42 43 44 44 44 44 45 46 48 50 50 51 52 51 51 50 50 49 48 48 48 47 46 46 48 50 50 50 49 49 49 49 48 46 41 37 37 39 40 39 39 40 41 42 43 41 39 38 38 39 39 38 38 38 39 38 39 39 39 40 41 41 41 42 43 44 45 45 45 44 44 44 44 44
41 42 42 42 42 43 42 41 40 39 38 38 38 40 41 42 43 43 43 43 45 47 48 48 49 50 50 50 50 50 49 48 47 46 45 45 45 46 47 48 50 50 50 49 50 49 48 47 46 46 47 46 43 42 42 41 40 40 40 39 40 41 43 43 41 40 40 40 40 39 38 37 38 39 40 41 43 44 45 46 45 45 45 45 44 44 45
43 44 44 44 44 44 44 44 43 42 42 40 40 40 42 43 43 44 44 45 46 48 48 48 47 47 48 48 48 48 47 47 46 44 43 42 42 43 44 45 46 47 47 48 49 50 51 51 50 49 48 48 46 45 44 41 39 38 38 39 40 42 43 43 42 40 39 39 39 39 38 38 39 40 41 42 44 46 46 47 47 47 47 48 47 46 45
44 45 45 45 45 45 44 44 44 44 44 44 43 44 45 46 47 47 47 48 49 50 50 49 48 47 47 47 48 48 47 47 46 45 44 42 41 42 43 44 45 44 43 44 45 45 46 47 47 47 47 47 46 45 44 44 44 43 44 45 45 45 45 44 44 43 42 40 40 40 40 41 42 43 44 45 47 48 49 50 51 52 52 51 50 49 48
45 46 46 47 48 48 48 47 46 45 45 46 46 46 47 48 48 48 48 49 49 50 50 50 50 50 50 51 51 50 48 47 47 47 46 45 44 44 45 46 47 46 44 43 43 44 44 44 44 45 47 46 45 45 46 47 49 50 51 51 51 50 49 48 47 46 45 44 43 43 44 45 46 47 49 49 50 51 52 53 54 54 54 53 53 52 50
46 46 47 48 50 51 50 49 48 46 45 46 46 47 48 49 49 49 50 50 50 50 50 51 51 51 51 51 51 51 49 48 49 49 49 48 47 46 46 47 48 48 48 48 49 49 49 47 44 45 47 48 48 48 48 49 51 52 53 53 53 53 53 52 51 49 48 48 49 49 50 50 51 51 52 52 52 53 53 54 54 54 54 53 53 52 52
49 50 50 51 52 52 51 50 48 46 45 45 45 45 46 48 47 48 49 49 49 50 50 50 49 49 49 49 50 50 49 49 50 51 51 51 49 47 47 48 48 48 49 50 51 51 51 49 47 47 48 49 50 50 49 48 48 49 50 50 51 53 54 54 54 54 53 53 53 53 53 53 53 53 52 53 53 54 55 55 55 54 53 53 53 53 53
52 52 53 53 53 53 53 50 48 46 45 44 43 43 44 45 44 44 45 46 47 48 48 47 46 46 47 47 47 47 48 49 50 51 51 51 49 47 47 48 49 50 51 52 52 53 52 49 47 46 45 46 50 52 52 52 51 51 52 51 51 52 53 54 55 56 56 55 54 53 52 52 52 52 52 53 54 55 56 56 56 55 53 53 53 54 54
51 51 52 52 52 52 51 48 47 46 44 43 43 44 45 45 45 45 46 46 47 48 47 46 45 45 44 44 45 45 46 48 49 51 52 52 49 47 45 46 48 49 51 52 53 54 55 53 52 50 49 49 49 51 53 56 56 56 55 55 54 54 54 55 56 57 58 58 57 55 53 53 53 54 54 54 54 55 56 56 56 55 54 53 53 54 55
48 49 49 50 50 50 49 48 47 46 44 43 43 44 44 45 46 46 47 47 47 47 47 47 47 47 47 47 48 48 49 50 50 51 53 54 53 51 49 50 51 52 54 55 55 55 56 56 56 57 57 57 57 56 56 57 57 56 55 55 57 57 56 55 55 56 59 61 62 61 59 58 58 58 57 56 55 54 54 54 54 54 54 53 53 53 54
42 43 44 45 47 48 49 48 47 45 43 43 44 44 44 44 43 42 42 42 43 44 45 46 47 48 49 50 51 52 53 53 53 53 55 56 57 57 57 58 58 59 60 60 60 59 59 60 60 60 61 62 62 63 63 63 63 62 61 61 62 63 63 63 62 60 61 63 65 65 64 64 62 61 60 59 58 56 53 51 51 52 52 52 51 51 52
38 40 42 43 44 44 44 44 44 44 44 44 44 44 43 41 41 41 42 43 44 45 47 48 49 50 51 52 53 55 56 57 57 58 58 59 59 60 60 61 62 63 63 63 63 63 63 64 64 63 63 63 63 64 65 66 67 69 69 68 68 67 68 68 68 67 66 65 66 68 68 68 67 65 63 61 60 57 54 52 50 49 48 48 49 49 50
39 40 43 44 44 43 43 44 44 45 45 44 43 43 43 44 45 47 48 49 50 51 52 53 54 54 55 56 57 58 59 59 60 61 61 61 61 61 60 61 62 63 63 63 64 64 64 65 66 66 66 66 66 66 65 65 66 68 70 72 73 73 73 73 71 71 70 69 70 70 70 69 67 65 63 61 59 57 55 52 50 49 48 47 47 48 49
39 40 41 42 43 43 44 45 45 46 46 46 46 47 49 50 51 51 51 52 52 53 54 54 55 56 57 57 58 58 59 59 60 60 60 60 61 61 61 61 61 62 63 64 64 64 65 66 67 68 69 69 69 68 68 67 67 67 68 70 72 74 75 75 73 71 70 69 69 68 66 64 62 61 60 58 56 54 53 52 51 50 50 48 46 46 46
39 41 42 43 43 43 44 45 46 47 49 50 51 52 52 52 52 51 51 51 51 51 52 52 52 52 53 53 54 54 55 56 57 57 58 58 59 59 59 60 61 61 61 61 62 63 64 65 66 68 69 69 69 69 68 68 68 68 69 69 70 72 72 73 72 71 70 67 65 63 61 60 58 58 57 55 54 53 52 51 51 51 50 49 47 45 44
36 39 42 43 44 45 46 47 48 49 50 50 50 50 50 49 49 48 48 48 49 49 49 50 50 50 51 52 52 53 54 55 56 56 56 57 57 58 58 59 60 60 60 60 60 60 61 63 65 66 67 67 67 67 67 67 68 68 69 70 70 71 71 71 72 72 71 68 64 62 60 59 58 57 56 54 53 53 52 52 51 51 50 48 47 46 44
32 34 36 38 39 41 42 43 44 44 45 45 45 45 46 47 47 47 47 48 49 50 50 50 51 51 52 53 54 54 55 56 56 57 57 58 58 59 59 60 60 61 61 60 60 60 59 60 62 64 64 65 65 66 65 65 65 66 67 67 68 68 68 68 68 68 68 67 64 62 61 60 60 59 57 54 52 51 50 50 50 49 48 47 46 45 43
26 28 30 32 34 36 37 38 39 40 40 41 42 44 45 46 47 48 49 50 50 51 52 52 53 53 54 55 55 55 56 57 57 58 59 59 59 59 60 61 61 62 62 62 62 61 60 61 62 62 63 63 64 65 65 65 65 65 64 64 64 64 64 65 64 64 64 64 64 62 60 59 58 58 56 53 50 48 47 47 46 45 45 45 45 44 42
25 27 29 31 32 34 36 37 37 38 39 41 42 43 44 45 46 47 48 49 50 50 52 53 53 54 55 55 55 55 55 55 56 57 58 59 59 58 59 59 59 60 61 62 62 62 62 62 63 62 62 63 64 65 66 66 66 66 65 64 63 62 62 62 62 62 62 62 62 60 58 56 56 56 54 51 49 47 45 44 43 43 43 44 44 43 42
27 29 30 31 33 34 34 35 36 37 38 39 40 42 42 43 45 46 47 48 49 50 50 51 51 52 51 50 50 50 50 50 52 53 54 54 54 53 53 53 54 54 55 57 58 59 60 61 62 62 62 62 63 64 65 66 67 67 66 65 63 62 61 61 61 62 62 61 59 58 56 54 54 54 52 49 47 46 44 44 44 44 44 43 43 43 42
28 29 30 31 32 32 33 34 35 36 37 38 39 41 42 43 44 44 44 44 44 44 43 42 40 40 39 39 39 41 42 43 45 46 45 45 44 45 45 46 46 47 48 49 50 50 51 53 55 57 58 60 61 63 64 65 66 67 67 66 65 63 62 62 61 61 61 59 57 56 55 53 52 51 50 48 46 45 44 44 45 45 44 43 42 42 41
26 27 29 29 30 31 32 33 34 35 36 37 37 38 38 37 37 36 34 33 32 31 30 29 29 29 30 31 33 35 36 36 36 36 35 34 34 35 36 38 39 40 40 40 40 40 41 43 46 48 51 52 55 57 60 61 63 64 65 65 64 63 62 62 62 61 61 59 56 54 54 53 51 51 49 47 45 44 44 44 44 44 43 42 42 41 41
24 26 26 27 28 29 30 32 32 33 33 33 33 31 30 28 26 25 24 23 22 22 22 23 24 25 27 29 29 29 29 29 28 29 29 29 29 30 31 31 32 32 31 30 30 31 34 36 39 41 43 44 46 48 50 53 55 58 59 60 61 61 61 61 61 61 60 59 57 54 52 51 50 50 49 47 45 44 43 43 43 42 41 41 41 41 40
23 24 25 26 26 27 29 29 29 29 29 28 26 24 22 21 20 20 20 20 19 20 21 22 23 24 24 24 24 24 25 25 24 25 25 25 25 25 25 26 26 26 26 27 27 29 30 30 31 31 31 33 35 37 39 41 44 46 49 51 53 55 55 56 57 58 58 58 57 54 52 51 49 49 48 47 45 44 43 42 41 40 40 39 39 39 38
23 23 24 25 26 26 25 25 24 24 25 23 21 19 18 18 18 18 18 18 19 20 21 21 22 22 21 20 20 20 19 18 18 18 18 18 18 18 17 17 18 19 20 21 21 20 19 17 16 16 18 21 24 27 29 31 33 35 38 41 44 47 48 49 51 52 53 54 53 53 52 50 48 48 47 46 44 43 42 41 40 39 38 37 37 36 36
22 23 24 25 24 23 22 21 20 20 20 19 17 16 16 16 16 16 16 16 17 17 18 19 20 20 18 16 14 13 11 11 12 13 13 12 11 9 7 7 7 8 9 10 10 9 8 8 8 9 12 15 17 18 19 19 20 21 24 26 29 32 35 38 41 44 46 47 48 48 48 47 46 45 45 44 43 42 41 40 39 38 36 34 33 32 30
22 23 24 23 22 20 18 18 17 17 16 15 14 14 15 14 14 14 14 14 14 14 15 16 16 14 10 9 9 9 9 8 8 8 8 8 8 7 7 6 5 4 4 4 4 3 3 3 4 5 7 9 12 13 13 13 13 13 14 14 16 18 21 24 28 32 34 36 38 40 41 41 40 40 39 39 39 38 38 36 35 33 31 29 27 25 24
22 23 22 21 19 17 16 15 13 13 13 13 13 13 13 13 13 12 11 11 11 12 12 11 9 10 12 14 16 16 15 15 15 14 12 11 13 14 14 14 13 12 11 10 9 9 9 8 7 6 5 6 7 8 7 7 8 8 9 11 13 15 16 18 19 21 24 27 28 30 31 32 32 32 32 32 32 32 31 30 28 25 23 22 21 20 20
21 21 20 19 16 14 13 12 10 10 11 11 11 12 11 11 11 10 9 9 9 8 6 7 9 12 15 17 18 18 18 18 17 16 16 16 17 18 18 17 16 14 13 13 12 12 12 12 11 9 7 5 3 2 1 1 0 0 3 7 11 15 18 19 19 19 19 19 19 19 20 22 24 25 27 27 27 26 25 23 21 19 18 18 18 18 17
20 19 18 16 14 12 11 10 10 10 10 10 11 11 10 10 10 8 6 7 7 4 6 9 10 11 13 15 15 16 18 19 18 19 19 19 19 19 18 17 15 13 12 12 13 13 12 11 11 10 8 7 6 5 6 8 8 7 6 3 3 9 13 16 17 17 17 18 18 18 19 22 23 24 24 24 23 22 20 19 19 19 18 17 17 17 17
19 17 15 13 12 11 11 10 9 8 8 9 10 10 9 9 8 5 4 5 4 4 7 7 7 8 9 10 11 13 16 18 20 21 21 21 20 20 20 20 17 13 12 11 11 11 11 11 12 12 12 11 10 9 10 11 10 9 10 11 10 9 7 9 11 12 14 19 21 21 19 20 21 21 21 21 20 19 19 19 19 19 18 17 17 17 17
17 15 13 11 11 10 10 9 7 6 7 8 8 8 9 8 5 3 3 3 2 6 5 3 5 7 8 8 8 10 13 17 19 20 20 20 19 20 21 21 18 14 12 11 10 11 13 13 14 15 15 13 12 12 12 11 9 7 8 11 14 16 15 15 16 17 18 19 20 20 19 19 19 19 18 18 18 18 18 19 19 18 18 17 17 17 17
15 13 12 10 9 9 9 7 5 4 5 6 7 8 9 7 3 1 2 1 3 5 3 1 3 6 7 7 7 7 9 13 15 16 17 17 17 17 18 17 16 14 12 10 10 12 15 16 16 17 17 15 14 14 14 14 12 10 10 11 12 13 14 15 16 18 18 18 18 17 17 16 16 15 16 16 17 18 18 18 18 18 17 17 17 16 15
13 12 11 10 9 9 8 6 4 3 4 5 6 7 7 4 1 1 1 2 4 5 3 2 3 4 5 7 7 8 8 10 12 13 12 13 13 13 13 13 13 13 13 11 11 13 15 17 17 18 18 18 17 16 17 18 17 14 13 11 10 9 10 11 11 12 13 13 14 14 14 13 12 13 15 15 16 17 18 18 18 17 17 17 15 13 12
12 11 11 10 9 8 7 5 3 3 3 4 5 6 5 2 1 1 2 4 5 5 5 3 3 3 4 6 7 8 8 9 11 10 9 9 9 9 10 11 13 14 15 15 15 15 15 16 17 17 17 18 19 19 20 21 20 18 15 13 12 11 12 12 11 11 12 13 13 14 14 13 13 14 15 15 16 17 17 17 17 17 16 14 12 11 13
12 10 10 10 9 8 6 4 3 2 2 3 4 5 5 5 5 4 3 4 5 5 5 5 3 3 3 4 4 5 6 6 7 6 6 7 6 7 8 10 11 13 15 17 17 17 17 18 17 16 15 15 16 17 18 18 18 18 18 17 16 15 14 14 13 13 14 15 15 15 15 14 13 14 15 15 16 16 16 16 15 14 13 11 12 15 18
12 10 10 9 9 7 5 3 2 2 2 2 3 3 4 5 6 6 5 4 3 3 4 5 4 3 1 1 1 2 2 3 2 2 5 7 7 7 7 8 8 10 13 16 17 18 19 20 19 18 17 15 14 14 14 15 14 15 15 17 18 17 16 15 15 15 15 15 16 16 16 15 14 14 14 14 15 15 15 14 13 12 12 14 16 19 20
12 11 10 10 9 8 6 3 2 2 2 2 2 1 2 3 4 5 4 3 3 2 2 2 3 2 4 5 5 4 3 3 2 3 4 5 7 7 7 6 6 6 9 13 14 16 17 18 19 19 18 17 16 14 13 13 12 11 11 12 13 14 15 15 15 14 14 14 14 14 13 12 11 11 11 11 11 11 11 11 11 13 15 18 20 20 18
13 12 12 11 10 9 6 4 3 3 2 2 2 2 1 1 2 3 3 4 4 3 3 3 3 4 5 6 6 5 5 4 4 3 3 3 4 6 6 6 5 4 5 8 11 12 13 15 16 16 17 17 16 16 15 14 13 12 10 9 9 9 9 9 10 11 11 11 10 9 8 7 7 7 7 7 8 8 9 11 14 17 19 20 19 18 16
13 13 13 12 11 10 8 6 5 4 4 3 3 3 3 2 1 1 2 4 5 5 5 5 5 5 6 5 5 5 4 3 1 1 1 2 3 4 5 5 5 4 4 5 6 8 9 10 11 12 13 14 14 14 15 15 14 14 12 11 10 9 8 7 6 6 6 6 6 5 5 4 4 5 6 7 8 9 11 14 17 19 20 19 18 16 14
12 14 14 14 13 12 11 9 7 7 7 6 5 4 4 4 3 3 2 2 3 4 5 5 5 6 6 7 7 7 6 5 4 3 2 1 1 1 2 3 4 5 5 6 6 6 6 6 6 7 9 10 11 11 12 12 13 13 13 13 12 11 10 9 8 7 6 5 4 4 4 4 5 6 8 9 11 12 14 16 18 18 18 17 16 15 14
12 14 15 15 15 14 13 11 10 10 9 9 7 6 5 5 5 5 4 3 2 2 3 4 4 5 6 7 8 8 8 7 6 6 5 5 4 4 3 2 2 2 3 5 5 6 6 6 5 4 5 5 6 7 8 8 9 9 10 10 10 10 9 9 9 8 7 6 5 4 3 3 4 6 8 10 12 14 16 17 17 17 16 15 15 14 13
12 14 16 17 17 16 15 14 12 12 12 11 10 9 7 7 7 7 6 6 5 4 3 2 2 3 4 5 5 6 6 6 6 6 7 6 5 5 4 4 4 3 3 3 3 4 5 5 6 5 5 4 4 4 4 4 4 5 6 6 7 7 7 6 6 6 6 5 5 4 3 3 3 4 6 8 11 12 14 15 15 15 15 15 15 15 14
12 14 16 18 19 19 18 16 15 14 13 13 13 12 10 10 10 10 9 9 8 6 5 4 3 3 3 3 3 3 4 3 3 4 4 4 4 3 4 4 5 5 4 4 4 4 4 4 4 5 5 5 5 5 5 4 4 4 3 3 3 3 3 3 2 2 2 2 2 2 2 2 3 4 5 7 8 10 11 13 14 14 15 15 15 15 15
12 13 15 18 20 21 20 19 17 16 15 15 14 14 13 13 12 13 12 12 11 9 8 7 6 6 5 4 4 3 2 1 1 2 3 3 3 3 4 4 4 4 4 4 4 4 4 4 5 5 5 6 6 6 6 6 6 6 6 7 6 6 5 4 4 3 3 3 3 3 4 4 5 5 6 7 8 9 10 11 12 13 14 15 16 17 17
13 13 15 17 20 22 23 21 20 19 18 17 16 16 16 15 15 15 15 14 14 13 11 10 9 8 8 7 7 6 5 4 3 3 3 4 5 5 6 6 6 6 6 6 6 5 5 5 5 6 6 7 7 8 9 9 8 8 8 8 9 9 10 9 9 9 8 8 8 8 8 9 9 9 9 10 11 11 12 13 14 14 15 16 17 18 19
13 13 14 16 19 22 24 24 23 22 21 20 19 18 18 17 17 17 16 16 15 15 14 14 13 12 11 10 10 9 8 8 7 7 6 6 6 7 7 7 8 8 9 10 10 10 9 9 8 8 8 8 9 10 11 11 12 12 12 11 11 12 12 13 13 13 13 13 14 14 14 14 14 14 14 15 15 15 16 16 17 17 18 19 19 20 21
14 14 14 15 17 21 24 26 26 25 24 22 22 21 20 19 19 19 18 18 18 17 17 16 16 15 14 13 13 12 11 11 11 10 10 10 9 9 9 9 9 10 11 12 12 13 14 14 14 14 13 13 12 12 12 13 14 15 16 16 16 16 16 16 16 17 17 17 18 18 19 19 20 20 20 20 20 21 21 21 22 22 22 23 23 24 24
Wind_Direction
229 227 229 232 234 235 237 239 240 242 244 246 247 247 249 251 251 249 251 256 259 259 260 260 260 261 262 264 266 267 270 272 272 272 269 267 267 269 271 272 271 269 267 265 265 268 272 274 273 272 273 272 270 269 269 273 280 282 280 280 281 280 280 279 277 276 273 268 267 266 262 259 260 261 258 257 258 257 256 258 263 269 272 271 270 273 272
235 234 234 237 239 238 239 242 245 246 246 246 246 246 249 251 251 251 255 258 257 256 257 259 262 263 264 266 267 269 272 275 276 276 274 271 270 270 270 270 270 268 266 267 268 268 269 272 272 272 271 269 267 267 268 273 277 277 275 274 273 272 267 263 266 272 271 266 264 263 259 254 248 248 254 260 261 256 252 257 266 271 274 273 273 274 273
244 244 246 249 249 245 243 245 247 248 248 248 247 247 250 251 252 253 257 258 256 255 257 260 264 265 266 267 268 269 271 273 274 275 275 275 273 272 271 270 268 266 264 264 264 262 264 269 270 268 267 267 269 271 273 274 275 274 274 274 272 268 263 261 265 271 272 269 263 258 260 260 257 256 261 266 267 262 260 265 271 272 272 273 274 274 274
253 255 257 259 257 253 250 248 248 249 250 250 250 251 252 253 253 254 256 257 256 257 260 263 266 268 268 268 269 270 271 272 272 273 273 272 271 270 271 271 269 266 264 264 263 262 264 267 266 263 264 268 273 275 274 273 274 275 277 278 274 269 265 265 266 268 269 268 266 264 266 266 264 263 265 267 268 268 268 271 273 273 273 274 274 274 274
259 260 259 260 259 256 254 251 250 250 251 251 251 252 253 253 255 256 257 259 260 261 263 265 267 268 269 269 270 271 271 272 273 273 272 270 268 268 269 269 268 267 267 266 265 264 264 265 263 262 264 269 273 273 271 271 272 274 275 275 273 270 269 268 267 266 266 266 267 270 270 267 263 263 265 267 269 271 271 272 273 274 275 276 276 275 274
262 262 260 259 258 257 257 256 256 255 256 255 254 254 254 254 255 256 258 260 262 264 265 266 267 268 268 268 269 269 271 273 274 273 272 269 267 267 267 266 265 266 266 266 266 266 266 266 264 264 264 266 269 269 268 269 270 269 269 270 270 271 272 272 269 267 265 265 267 269 270 269 266 265 267 269 271 272 273 273 274 275 276 277 276 276 274
265 264 263 262 261 261 261 262 262 262 261 261 260 259 259 258 258 259 261 263 265 266 266 266 266 266 265 265 265 266 267 269 271 270 268 267 266 266 267 267 264 264 266 267 267 267 267 266 266 266 266 265 265 265 266 267 267 265 266 268 270 272 274 273 272 270 267 266 266 266 267 268 268 268 269 271 272 273 273 273 274 275 276 276 274 273 272
262 262 263 265 265 264 264 265 266 266 266 266 265 265 264 263 263 264 265 266 267 266 266 266 265 264 264 264 265 266 266 267 267 265 263 262 261 261 263 264 263 263 265 269 270 268 264 264 265 266 266 265 264 263 263 264 264 263 265 268 270 271 272 272 271 270 268 265 264 264 264 266 267 266 267 270 272 273 273 273 274 275 275 275 274 272 271
259 260 263 265 265 264 264 266 267 268 270 270 269 268 267 266 265 265 265 265 265 264 264 265 265 265 266 267 268 267 266 265 264 263 261 260 258 256 256 257 259 259 258 260 263 263 264 266 266 266 266 266 265 265 263 263 263 264 266 268 269 268 269 269 267 266 265 264 262 262 263 264 265 265 265 268 271 272 273 274 273 274 274 275 274 274 274
257 259 260 262 264 265 266 268 268 269 270 270 270 269 268 266 265 264 264 263 262 262 262 263 264 265 266 267 268 268 267 265 264 263 263 262 261 259 257 256 256 256 254 253 255 259 263 265 265 265 265 267 267 267 264 262 262 263 264 266 266 266 266 265 263 262 262 262 263 264 264 264 264 264 264 267 271 273 275 274 273 272 272 273 274 274 274
258 260 261 263 265 267 268 268 269 269 269 269 268 267 266 265 265 265 264 264 263 263 263 263 263 263 263 264 265 266 265 264 263 264 265 264 263 262 259 256 255 254 253 253 254 256 259 260 261 262 264 266 268 267 265 263 262 263 263 263 264 265 265 263 261 261 261 262 263 265 266 265 264 263 264 268 273 276 276 275 273 271 271 271 272 272 273
260 262 263 264 265 267 268 269 270 269 268 266 265 264 263 265 265 265 265 266 266 266 265 264 264 263 262 263 262 263 263 263 263 263 263 263 264 263 261 258 256 254 254 254 254 255 256 256 256 257 258 261 264 264 264 264 265 265 264 264 265 266 264 261 259 258 258 259 261 264 265 264 262 261 265 271 275 277 277 276 273 270 269 269 269 270 270
260 262 263 264 266 267 268 269 269 268 266 265 263 263 264 266 266 265 264 265 266 266 265 264 263 261 260 260 260 260 261 262 262 261 261 261 262 261 259 257 257 256 256 257 257 256 255 254 253 252 251 252 255 258 261 263 266 267 267 266 267 267 264 262 260 258 258 259 262 263 263 261 260 261 267 274 277 278 278 276 272 269 267 267 267 268 269
258 259 261 263 265 266 267 267 268 269 268 267 266 266 266 267 266 266 266 266 266 265 264 263 261 259 258 257 257 257 258 258 257 257 257 259 260 259 256 255 256 256 257 258 258 257 256 256 256 255 253 251 250 251 254 256 259 262 264 264 264 264 264 263 262 261 261 263 265 265 264 262 262 264 269 274 277 277 275 273 271 268 266 265 267 268 269
258 258 259 260 261 263 265 267 269 270 269 268 269 269 269 268 268 268 268 268 267 265 263 262 261 259 258 257 257 258 258 259 257 256 256 258 259 259 259 259 258 259 259 260 259 257 256 256 257 258 257 255 253 252 251 251 252 253 255 257 259 260 260 260 259 260 261 262 263 265 265 265 265 267 270 274 275 274 271 269 268 267 266 266 267 268 269
252 253 254 256 259 262 264 266 266 266 266 267 268 268 269 269 270 270 269 268 266 264 263 263 262 261 261 260 259 259 259 259 259 259 259 260 260 260 260 260 260 261 260 260 260 260 259 258 258 258 257 257 256 255 254 253 252 252 252 253 254 256 257 257 258 259 259 260 261 264 266 268 269 271 273 274 274 272 269 267 266 265 264 264 265 266 267
244 246 247 250 253 257 260 262 263 263 264 265 266 267 269 271 271 271 270 268 266 265 265 264 264 264 263 263 263 262 262 262 261 261 262 262 261 260 260 259 260 260 261 261 260 260 260 260 260 259 258 257 257 256 256 256 255 254 254 254 255 255 256 257 258 259 260 260 262 264 267 270 272 273 274 274 273 272 271 269 267 265 263 261 261 262 263
242 245 246 247 248 251 254 258 262 265 267 268 270 271 272 273 272 272 271 271 270 269 268 267 267 266 266 266 265 265 265 264 264 264 264 263 263 262 261 260 259 259 260 260 260 260 260 260 260 260 260 259 258 257 257 257 256 256 255 255 256 256 257 258 259 261 263 264 265 267 269 271 272 272 272 273 273 273 272 270 269 267 265 263 261 261 261
246 248 249 250 251 253 257 261 265 267 269 270 271 272 272 273 273 273 273 273 272 271 271 270 269 269 269 268 268 267 267 266 266 266 265 265 265 264 263 262 261 260 259 258 259 259 259 260 260 260 260 260 260 259 258 257 257 257 256 256 256 257 257 258 259 261 263 264 266 268 269 269 269 269 270 270 271 272 271 269 267 266 265 264 262 261 261
254 254 255 256 257 259 261 263 265 266 268 269 271 272 273 274 274 274 274 274 273 272 272 272 271 271 271 270 269 268 268 267 267 267 266 266 265 265 265 264 263 262 261 259 258 258 257 258 259 259 260 260 261 260 259 257 257 257 257 257 257 257 258 259 260 261 262 263 264 265 266 266 266 265 266 267 268 269 268 266 265 264 263 262 262 261 261
256 257 258 260 261 262 263 264 265 266 267 269 271 273 274 275 275 275 276 276 275 275 274 274 273 273 273 272 271 271 270 270 270 269 268 267 267 266 266 265 264 264 263 262 261 259 258 257 256 256 257 258 259 260 259 258 257 257 256 257 257 258 258 259 260 261 262 263 262 262 262 263 263 263 263 264 265 265 265 265 264 263 261 260 260 260 260
261 261 262 263 264 265 266 267 268 269 270 271 272 273 274 275 276 276 277 277 277 277 277 276 276 275 275 274 274 274 273 272 271 270 269 269 268 268 267 267 267 266 266 265 263 262 260 258 256 256 255 255 256 257 258 258 258 257 257 256 256 257 257 258 259 260 261 262 262 261 260 260 261 261 261 261 261 262 262 262 262 261 260 259 259 259 259
266 264 264 264 264 265 267 269 270 272 273 273 274 274 275 275 275 275 276 276 276 276 276 276 276 276 276 276 276 275 275 274 273 272 271 270 269 268 268 267 267 267 267 266 265 264 262 260 258 256 255 254 254 254 255 255 256 256 256 256 256 256 256 257 257 258 258 259 260 261 260 259 259 258 258 258 259 259 259 260 260 259 258 258 259 259 259
268 268 267 267 268 268 269 271 271 272 272 273 273 274 274 274 274 275 275 276 276 276 276 277 277 277 277 277 276 275 274 274 273 272 272 271 271 270 269 268 267 267 266 266 266 265 264 262 261 259 257 255 254 253 253 252 253 253 254 254 254 254 254 254 255 256 257 257 257 258 258 257 256 256 256 256 255 255 255 257 257 257 257 257 258 259 260
271 272 272 272 272 272 273 273 273 273 273 274 275 276 276 277 277 277 278 278 278 278 279 279 279 279 278 278 276 275 274 274 275 275 276 276 275 273 271 270 269 268 267 267 267 267 266 265 263 262 259 257 255 254 253 253 252 252 252 252 252 252 253 253 253 254 255 255 255 255 256 255 255 255 254 253 253 252 252 252 253 255 256 257 258 259 260
273 273 273 274 274 275 276 276 278 278 278 279 280 280 281 282 282 282 282 282 282 283 283 283 283 283 282 280 279 279 280 281 282 282 281 279 277 275 273 272 271 271 271 271 271 270 268 266 264 263 261 260 258 256 255 254 254 254 253 253 252 252 252 252 253 253 254 254 254 253 253 253 253 253 253 252 251 251 250 250 251 252 253 255 257 258 259
276 275 276 278 280 281 282 283 284 285 285 285 286 287 288 289 289 289 290 290 290 290 289 289 289 288 287 286 286 287 288 287 285 283 282 281 280 279 278 277 277 277 276 275 273 271 269 267 265 263 261 260 258 258 258 257 256 255 255 254 254 253 252 251 251 252 252 253 252 251 251 251 251 251 252 251 250 250 250 250 250 250 252 254 255 257 259
281 281 282 284 287 288 289 289 290 290 290 291 293 294 294 294 295 296 297 298 299 299 298 297 295 293 293 294 294 291 288 286 284 285 286 286 286 285 282 280 279 277 276 275 275 276 275 274 272 269 266 262 260 259 259 257 256 254 253 252 252 251 251 250 250 250 250 251 251 251 250 249 249 250 250 250 249 249 249 249 250 251 252 252 254 257 260
286 287 290 291 292 293 293 293 293 293 293 294 296 296 296 297 299 299 300 302 302 302 302 301 301 303 305 305 299 293 291 295 299 301 302 301 298 292 287 283 280 277 275 274 276 279 281 281 278 271 263 259 258 257 256 255 254 252 250 249 248 247 247 246 246 246 247 248 248 248 248 248 248 248 248 248 248 248 248 249 250 252 252 253 255 257 258
294 296 297 298 297 297 296 295 294 293 294 297 299 301 302 303 302 302 303 303 304 305 307 309 313 316 318 315 311 311 317 322 323 322 323 324 322 314 307 303 296 287 282 283 288 294 296 295 288 273 261 258 259 260 259 258 256 253 251 249 248 246 245 244 243 244 244 245 245 246 246 245 245 245 245 245 246 247 247 248 250 251 252 253 254 255 255
301 301 301 300 299 299 299 298 297 297 300 304 307 308 308 305 303 304 305 307 310 316 320 322 327 336 347 356 6 14 18 15 9 2 359 5 18 32 40 42 38 26 11 4 5 12 14 356 327 301 280 270 266 265 262 259 256 254 251 248 247 247 246 245 243 242 243 243 243 242 242 242 241 240 241 242 243 244 244 245 246 247 248 249 248 247 245
304 304 302 300 300 300 301 300 301 303 308 311 311 310 308 305 305 308 311 315 322 328 332 340 0 30 48 54 56 57 60 62 63 64 68 72 71 69 66 62 58 55 54 58 61 59 50 38 23 1 329 301 285 275 264 254 251 250 249 247 247 245 244 243 240 237 236 236 236 237 237 236 236 234 234 235 237 238 238 238 238 237 235 233 230 227 226
306 304 302 301 302 304 304 305 309 314 316 315 313 311 310 309 312 315 316 321 329 340 7 40 54 61 66 67 68 68 68 67 67 71 75 75 71 67 63 59 56 55 57 59 55 44 34 27 20 10 359 348 342 327 217 168 139 271 258 250 240 234 233 235 235 232 227 222 220 222 221 219 220 221 220 221 224 224 223 221 216 210 208 208 207 205 204
307 303 300 300 304 306 308 312 318 320 319 317 317 317 317 318 321 321 317 324 337 15 78 74 63 64 71 73 72 70 67 62 57 58 61 61 58 56 54 51 47 46 47 48 45 36 29 28 28 26 28 42 58 81 104 102 89 76 65 56 207 211 216 221 225 224 213 196 190 196 202 203 204 205 204 203 204 203 199 194 188 184 185 189 190 191 194
305 300 297 297 300 305 310 315 318 319 322 326 327 324 321 322 326 325 320 332 2 95 109 88 67 62 64 67 70 69 66 60 53 50 53 56 56 54 50 45 42 41 41 41 42 39 35 39 46 50 53 56 61 77 96 100 92 80 71 69 78 97 129 159 173 179 177 173 174 182 189 189 188 187 184 182 181 180 178 176 174 174 178 182 185 189 193
303 295 290 291 297 305 311 315 317 321 330 339 338 330 325 327 333 333 326 338 84 131 132 97 66 59 55 63 72 67 62 59 52 47 48 51 50 47 42 37 36 43 49 48 49 52 51 51 56 60 62 63 68 81 93 97 90 77 68 70 76 81 88 102 116 126 135 144 152 159 162 163 164 164 164 164 166 168 169 171 173 176 181 185 189 192 194
300 289 283 286 295 303 308 312 316 324 341 353 351 340 334 337 340 318 318 355 125 143 151 117 75 65 61 73 85 75 63 61 55 46 46 50 49 43 37 30 29 38 50 52 53 60 64 63 62 64 68 73 81 89 93 94 90 80 71 70 73 76 82 93 104 111 119 126 134 141 146 148 149 153 156 159 162 165 168 173 178 180 182 185 188 190 194
296 281 275 281 291 299 304 308 311 317 340 0 358 347 341 339 321 222 152 105 120 132 139 125 100 78 63 73 95 106 100 85 72 58 51 53 53 44 34 28 30 38 47 51 53 61 68 70 69 68 70 74 82 91 94 94 90 82 78 81 85 88 96 105 112 117 124 132 141 147 149 149 151 156 159 161 165 168 171 175 177 179 181 185 189 194 200
293 273 266 272 283 291 296 300 301 305 330 354 357 354 3 31 90 126 102 93 101 113 121 126 127 109 74 73 97 120 120 102 89 78 63 58 59 48 33 32 39 43 46 49 50 52 57 63 66 67 69 72 77 83 89 92 92 89 87 90 96 105 115 123 131 136 141 148 153 156 157 159 163 165 166 169 171 171 171 174 178 182 187 192 196 197 195
291 268 257 262 273 280 282 284 284 291 321 341 342 352 19 47 58 57 61 74 79 84 91 95 94 86 67 65 87 114 120 109 98 81 49 36 38 38 34 39 45 48 49 53 55 54 53 53 55 56 60 65 70 74 80 85 91 93 94 93 96 102 112 121 128 134 139 144 148 151 155 161 164 166 168 172 172 171 173 178 184 189 194 196 191 186 182
289 267 251 253 263 267 264 262 265 283 317 332 327 341 16 38 41 36 42 67 81 76 79 84 78 72 90 140 141 135 135 131 114 39 14 12 13 15 24 34 43 48 52 57 60 61 60 57 54 52 52 54 57 62 69 76 82 89 95 99 102 106 110 115 120 126 132 138 143 147 150 152 155 157 162 166 169 172 177 183 188 191 192 188 181 177 175
284 266 249 246 252 255 251 245 245 258 302 318 294 284 358 27 34 35 42 62 88 92 90 96 98 127 175 191 198 202 200 208 246 291 327 351 357 356 3 16 25 36 47 53 59 63 63 60 57 57 57 57 56 56 58 62 67 73 83 93 102 109 115 121 126 131 136 141 146 148 148 147 146 146 151 158 163 169 175 183 187 188 185 180 176 174 176
276 262 247 241 243 246 243 236 230 232 253 278 256 226 216 21 34 54 69 80 94 104 110 119 135 157 176 189 194 198 206 221 247 274 296 318 331 336 346 0 6 0 17 37 50 58 61 59 57 56 57 59 62 64 64 64 64 65 67 73 82 93 105 116 125 131 137 142 148 150 149 147 143 140 143 151 160 169 177 183 183 180 177 176 176 178 182
271 258 245 237 237 239 237 232 228 224 224 234 240 223 201 186 171 129 105 95 91 93 99 109 124 138 150 158 159 154 159 177 203 275 305 305 312 324 334 345 346 332 330 354 20 37 48 55 55 53 52 54 57 61 65 69 70 70 70 71 73 78 85 94 106 118 128 137 145 149 150 150 148 145 147 155 163 171 177 180 179 177 176 177 180 184 189
268 255 243 234 231 234 235 233 231 226 220 218 222 221 206 188 187 198 190 142 104 92 88 89 95 104 112 116 115 109 107 114 123 124 121 112 74 22 346 334 333 327 320 323 333 345 2 24 37 42 46 50 52 55 60 65 68 70 71 72 73 75 79 82 88 95 102 109 122 136 149 157 159 158 158 161 166 171 176 180 181 182 183 185 189 193 199
267 254 243 233 228 229 233 234 231 227 222 215 209 209 209 204 200 207 212 200 166 133 108 92 87 90 93 93 93 92 94 99 105 105 101 94 84 78 70 44 6 341 325 324 328 331 334 340 350 2 16 29 40 47 53 57 62 66 68 69 69 70 71 72 74 77 79 81 85 92 108 135 153 161 164 168 171 175 178 182 185 188 192 196 201 206 210
268 255 244 234 229 227 230 232 230 228 225 218 209 204 208 212 211 212 215 214 204 194 186 161 124 113 107 100 93 87 83 80 80 82 81 75 70 68 65 60 55 48 28 4 354 351 345 340 335 334 335 341 352 6 17 25 37 50 58 61 62 62 64 64 65 66 69 74 80 85 95 119 149 168 176 181 184 186 189 193 197 201 205 210 214 219 224
269 258 246 236 230 227 228 229 229 228 227 222 214 208 207 212 215 218 221 222 219 215 213 215 215 201 173 151 132 112 90 72 59 58 58 55 49 47 44 40 36 36 35 30 19 11 3 354 343 334 330 326 324 324 323 320 321 326 336 349 7 23 33 37 41 46 56 71 90 109 133 161 181 191 196 198 200 202 205 209 212 216 220 224 227 232 236
269 260 250 240 232 228 227 228 228 227 227 226 221 215 212 213 217 222 225 226 227 226 224 224 228 233 230 217 202 186 166 130 8 359 0 0 357 358 1 359 354 354 358 4 4 0 358 353 346 337 327 319 313 310 307 304 301 299 298 297 296 295 294 293 289 285 278 270 259 248 237 230 226 224 224 225 226 226 228 229 231 233 235 237 240 243 246
266 261 253 244 235 230 228 228 228 227 228 228 226 222 218 217 219 223 228 230 231 232 231 231 233 239 242 241 238 234 235 243 259 287 314 325 330 333 336 336 333 329 326 325 323 322 322 324 324 322 318 312 306 300 296 295 293 290 288 285 284 282 280 279 278 275 273 270 267 263 258 252 246 242 241 241 241 241 243 244 246 247 249 251 252 253 255
266 262 256 248 239 233 231 231 230 229 229 230 231 228 225 222 222 224 228 232 235 235 235 236 237 240 243 246 248 248 250 254 260 266 278 293 304 314 321 325 328 329 327 324 322 318 314 310 307 304 303 302 300 296 292 290 288 286 284 282 279 276 274 273 271 270 269 268 267 265 262 259 255 253 251 250 249 249 249 250 252 254 255 257 258 259 260
267 264 259 252 242 235 232 232 233 232 231 232 233 234 232 229 227 226 227 231 235 238 238 239 241 243 245 247 249 251 252 256 262 267 273 281 289 297 304 310 317 322 325 324 323 322 320 317 314 310 305 301 297 293 289 286 284 283 281 280 278 276 274 271 269 267 266 265 264 264 263 261 260 258 257 256 255 255 255 255 256 257 257 258 258 259 259
Height
5674 5676 5677 5679 5680 5681 5681 5682 5682 5682 5682 5682 5683 5683 5683 5684 5685 5684 5684 5686 5687 5687 5686 5685 5685 5686 5686 5687 5688 5689 5690 5691 5692 5693 5693 5694 5694 5694 5694 5694 5694 5695 5697 5697 5696 5696 5696 5696 5696 5696 5696 5697 5697 5697 5698 5698 5697 5697 5699 5700 5700 5701 5701 5701 5700 5700 5701 5701 5702 5703 5704 5704 5705 5705 5706 5706 5706 5707 5708 5707 5706 5706 5707 5707 5708 5709 5710
5670 5672 5674 5675 5676 5677 5678 5677 5677 5678 5678 5678 5678 5678 5679 5680 5680 5678 5679 5682 5683 5682 5682 5680 5680 5681 5682 5683 5684 5685 5685 5686 5686 5687 5688 5689 5689 5689 5689 5689 5690 5691 5692 5693 5693 5692 5692 5692 5692 5691 5691 5691 5692 5693 5694 5694 5693 5693 5695 5696 5697 5697 5698 5698 5697 5696 5696 5697 5698 5699 5699 5699 5700 5699 5699 5700 5701 5702 5702 5701 5701 5701 5702 5703 5704 5704 5705
5666 5668 5669 5670 5672 5673 5673 5672 5673 5674 5674 5673 5674 5675 5676 5676 5675 5674 5675 5677 5677 5676 5676 5675 5675 5676 5677 5678 5679 5680 5681 5682 5682 5682 5682 5682 5682 5682 5682 5682 5683 5685 5686 5687 5687 5687 5687 5687 5687 5686 5686 5687 5688 5688 5689 5688 5687 5688 5689 5691 5692 5692 5693 5693 5692 5692 5692 5692 5693 5694 5693 5693 5694 5694 5694 5695 5696 5697 5698 5697 5697 5697 5698 5699 5700 5700 5700
5662 5664 5664 5665 5666 5668 5667 5667 5668 5668 5668 5669 5670 5671 5672 5671 5671 5671 5671 5672 5671 5669 5669 5670 5670 5670 5670 5671 5673 5674 5675 5676 5676 5677 5677 5677 5676 5675 5674 5674 5676 5678 5679 5680 5680 5681 5681 5682 5682 5682 5682 5682 5683 5683 5683 5682 5682 5682 5684 5685 5686 5687 5687 5688 5688 5688 5687 5687 5687 5688 5688 5689 5689 5689 5689 5690 5691 5692 5693 5693 5692 5693 5693 5694 5695 5695 5695
5657 5658 5659 5660 5660 5661 5660 5661 5662 5661 5662 5664 5665 5665 5666 5666 5666 5667 5667 5667 5666 5664 5664 5665 5665 5664 5664 5665 5666 5667 5668 5669 5670 5670 5670 5671 5671 5670 5669 5668 5669 5670 5671 5672 5673 5674 5676 5677 5678 5678 5677 5677 5678 5678 5676 5676 5677 5677 5678 5679 5680 5681 5681 5682 5683 5683 5683 5683 5683 5683 5683 5684 5684 5684 5685 5685 5685 5686 5687 5687 5687 5687 5688 5688 5689 5690 5690
5651 5651 5652 5653 5653 5653 5654 5655 5656 5656 5656 5658 5659 5659 5659 5660 5661 5661 5662 5663 5661 5659 5659 5660 5660 5659 5659 5659 5660 5661 5662 5663 5663 5663 5663 5664 5664 5663 5663 5662 5663 5663 5664 5664 5665 5667 5669 5670 5671 5671 5671 5672 5672 5672 5670 5671 5672 5673 5673 5674 5675 5675 5675 5676 5677 5678 5678 5677 5677 5677 5677 5678 5678 5679 5679 5679 5679 5680 5680 5680 5681 5682 5682 5683 5684 5685 5685
5643 5643 5644 5645 5645 5647 5648 5648 5649 5650 5650 5651 5652 5652 5653 5654 5655 5655 5656 5657 5656 5653 5653 5654 5654 5653 5653 5654 5655 5656 5656 5656 5657 5657 5657 5657 5657 5657 5656 5656 5657 5657 5658 5658 5658 5659 5660 5661 5662 5663 5664 5664 5666 5666 5666 5666 5667 5668 5668 5669 5670 5670 5670 5670 5671 5671 5672 5672 5673 5673 5673 5673 5673 5673 5673 5674 5674 5674 5674 5675 5676 5677 5678 5678 5679 5680 5680
5636 5636 5637 5638 5638 5640 5641 5641 5641 5642 5644 5645 5646 5646 5646 5647 5647 5648 5649 5650 5649 5647 5646 5647 5649 5648 5647 5647 5648 5649 5650 5650 5650 5651 5651 5652 5652 5651 5650 5650 5650 5652 5653 5652 5651 5651 5652 5653 5654 5655 5655 5656 5658 5660 5660 5660 5661 5662 5663 5664 5665 5666 5666 5666 5666 5666 5667 5667 5668 5668 5668 5668 5668 5668 5668 5668 5668 5669 5669 5670 5670 5671 5671 5672 5672 5673 5673
5630 5631 5631 5631 5631 5632 5634 5635 5636 5637 5637 5638 5639 5639 5639 5639 5640 5641 5642 5642 5642 5641 5640 5641 5642 5642 5641 5641 5640 5641 5642 5642 5642 5643 5644 5645 5645 5645 5645 5645 5644 5646 5647 5647 5645 5644 5645 5646 5647 5648 5648 5649 5651 5653 5654 5655 5655 5656 5656 5657 5659 5660 5661 5662 5662 5662 5662 5662 5663 5663 5663 5663 5663 5663 5663 5663 5663 5663 5664 5664 5664 5664 5664 5664 5664 5665 5665
5624 5625 5625 5625 5624 5626 5629 5630 5631 5632 5632 5631 5632 5632 5631 5631 5632 5633 5633 5633 5634 5634 5635 5635 5635 5635 5635 5634 5633 5633 5634 5634 5634 5635 5635 5636 5637 5638 5638 5638 5638 5638 5639 5640 5640 5639 5638 5639 5640 5640 5641 5641 5642 5644 5646 5647 5648 5648 5649 5650 5651 5652 5653 5654 5655 5656 5656 5656 5656 5657 5657 5657 5657 5657 5657 5657 5658 5658 5658 5658 5658 5658 5658 5658 5658 5658 5658
5617 5618 5619 5619 5619 5620 5622 5623 5625 5626 5626 5625 5625 5625 5623 5624 5625 5625 5625 5626 5627 5628 5628 5629 5629 5629 5629 5628 5628 5627 5626 5627 5627 5627 5627 5627 5629 5630 5630 5630 5630 5630 5631 5632 5632 5632 5631 5633 5634 5634 5634 5634 5634 5635 5637 5638 5640 5641 5641 5643 5644 5644 5645 5647 5648 5648 5649 5650 5650 5650 5650 5650 5650 5650 5651 5651 5651 5651 5651 5651 5652 5652 5652 5651 5651 5651 5651
5612 5612 5612 5612 5612 5613 5614 5616 5618 5619 5619 5619 5619 5617 5616 5618 5620 5620 5619 5620 5621 5621 5622 5623 5624 5623 5623 5622 5622 5621 5620 5620 5619 5619 5619 5619 5620 5621 5621 5621 5621 5622 5622 5623 5624 5624 5624 5626 5627 5627 5628 5628 5628 5628 5628 5629 5631 5633 5634 5635 5636 5637 5638 5639 5640 5640 5641 5642 5643 5643 5643 5643 5643 5644 5644 5644 5644 5644 5643 5644 5645 5645 5645 5645 5644 5644 5644
5606 5606 5605 5605 5605 5606 5607 5609 5610 5610 5612 5612 5611 5611 5612 5613 5614 5613 5613 5614 5614 5613 5614 5616 5616 5617 5616 5616 5616 5615 5615 5614 5613 5612 5611 5611 5612 5612 5612 5612 5612 5613 5614 5614 5615 5616 5616 5618 5619 5619 5621 5621 5621 5621 5621 5622 5623 5624 5626 5627 5628 5628 5629 5630 5631 5632 5633 5634 5635 5636 5637 5637 5637 5638 5638 5639 5638 5638 5637 5637 5638 5638 5638 5638 5637 5637 5637
5600 5600 5599 5599 5599 5599 5600 5602 5603 5604 5605 5604 5604 5605 5607 5607 5606 5606 5607 5607 5607 5606 5607 5607 5608 5608 5608 5607 5607 5607 5607 5606 5606 5605 5604 5604 5604 5604 5604 5604 5604 5605 5605 5606 5607 5608 5608 5609 5610 5610 5612 5612 5613 5614 5614 5615 5616 5617 5618 5619 5619 5619 5620 5621 5622 5622 5623 5624 5625 5627 5629 5630 5631 5631 5632 5633 5633 5632 5632 5632 5632 5631 5631 5631 5631 5630 5630
5594 5594 5594 5593 5593 5593 5594 5596 5597 5597 5598 5597 5597 5598 5599 5599 5599 5600 5600 5600 5600 5600 5599 5599 5599 5599 5599 5599 5599 5599 5598 5598 5598 5598 5598 5597 5596 5596 5596 5596 5596 5596 5597 5597 5598 5600 5600 5600 5600 5601 5601 5602 5603 5605 5606 5607 5608 5609 5609 5610 5610 5610 5610 5611 5612 5613 5614 5614 5615 5617 5619 5621 5622 5623 5624 5625 5626 5626 5626 5627 5627 5626 5625 5625 5624 5624 5623
5589 5589 5588 5588 5588 5589 5590 5591 5592 5592 5592 5592 5592 5592 5592 5592 5593 5593 5593 5593 5592 5592 5591 5591 5590 5590 5590 5590 5590 5590 5590 5589 5589 5589 5589 5589 5588 5588 5587 5587 5586 5586 5587 5588 5589 5590 5591 5591 5591 5591 5591 5592 5593 5594 5596 5598 5599 5599 5600 5600 5600 5600 5600 5601 5602 5603 5604 5605 5607 5608 5609 5612 5614 5615 5616 5616 5616 5617 5619 5620 5621 5621 5621 5620 5619 5618 5617
5586 5585 5584 5584 5585 5586 5586 5587 5587 5587 5587 5587 5587 5587 5587 5586 5586 5586 5585 5584 5584 5583 5583 5582 5582 5582 5582 5582 5581 5581 5580 5580 5580 5580 5579 5579 5579 5579 5579 5579 5578 5577 5577 5579 5580 5581 5581 5581 5581 5581 5581 5582 5583 5585 5586 5588 5588 5589 5590 5590 5590 5591 5591 5592 5593 5594 5595 5597 5598 5599 5601 5603 5605 5606 5606 5606 5607 5608 5609 5611 5612 5613 5614 5614 5613 5612 5611
5581 5580 5580 5581 5582 5582 5581 5581 5581 5581 5581 5581 5580 5580 5579 5578 5577 5577 5576 5575 5575 5574 5574 5574 5574 5573 5573 5573 5572 5572 5571 5570 5570 5569 5569 5569 5568 5568 5569 5569 5568 5568 5568 5569 5570 5571 5572 5572 5571 5571 5571 5571 5573 5575 5577 5578 5578 5578 5579 5580 5580 5581 5582 5584 5585 5586 5587 5589 5590 5592 5593 5595 5596 5597 5597 5597 5599 5600 5601 5602 5603 5604 5605 5606 5606 5606 5606
5577 5577 5576 5577 5577 5577 5576 5576 5576 5575 5574 5573 5572 5571 5570 5570 5569 5569 5568 5567 5566 5565 5565 5565 5565 5565 5564 5563 5563 5562 5561 5560 5560 5559 5559 5559 5558 5558 5558 5558 5557 5557 5558 5560 5560 5561 5562 5562 5561 5560 5560 5560 5562 5564 5567 5568 5568 5568 5569 5570 5571 5572 5573 5574 5576 5576 5578 5580 5582 5583 5585 5586 5587 5588 5589 5590 5591 5592 5593 5594 5595 5595 5596 5597 5598 5599 5599
5572 5572 5571 5571 5571 5571 5571 5570 5569 5568 5567 5566 5565 5565 5563 5562 5562 5561 5560 5559 5558 5557 5557 5556 5556 5556 5555 5554 5554 5553 5552 5551 5550 5549 5549 5549 5549 5548 5548 5547 5546 5546 5547 5549 5550 5551 5552 5553 5551 5550 5550 5551 5551 5553 5556 5557 5557 5558 5559 5560 5561 5563 5564 5565 5566 5567 5568 5571 5574 5574 5575 5577 5578 5580 5582 5583 5584 5584 5585 5586 5587 5588 5589 5590 5590 5591 5592
5566 5566 5566 5565 5565 5564 5564 5563 5563 5562 5561 5561 5560 5559 5557 5555 5555 5554 5553 5551 5550 5549 5549 5548 5547 5547 5545 5544 5544 5544 5543 5541 5540 5539 5539 5539 5538 5538 5537 5536 5535 5535 5536 5537 5538 5540 5542 5543 5541 5540 5541 5542 5542 5542 5544 5545 5546 5547 5548 5550 5551 5553 5554 5555 5557 5558 5559 5561 5563 5565 5566 5568 5570 5572 5574 5576 5577 5577 5578 5579 5580 5581 5582 5583 5584 5584 5586
5562 5562 5561 5561 5560 5559 5558 5557 5557 5556 5556 5555 5554 5552 5551 5549 5548 5547 5545 5544 5543 5541 5540 5539 5538 5537 5536 5535 5534 5534 5533 5531 5530 5529 5529 5528 5528 5528 5526 5526 5525 5524 5524 5525 5526 5528 5530 5530 5530 5531 5532 5533 5533 5533 5533 5534 5535 5536 5538 5540 5541 5543 5545 5546 5548 5549 5551 5552 5553 5555 5557 5560 5561 5563 5565 5568 5569 5570 5571 5572 5574 5575 5576 5576 5577 5578 5579
5558 5557 5556 5555 5555 5554 5553 5552 5552 5551 5550 5549 5547 5546 5545 5543 5542 5540 5539 5538 5536 5534 5532 5531 5529 5528 5527 5526 5525 5524 5523 5521 5519 5518 5518 5518 5518 5518 5516 5516 5515 5514 5513 5513 5514 5515 5517 5517 5518 5520 5522 5523 5523 5523 5523 5524 5525 5526 5527 5529 5531 5533 5535 5537 5539 5540 5542 5543 5545 5546 5549 5552 5553 5555 5557 5560 5562 5564 5565 5566 5567 5568 5569 5570 5570 5571 5572
5552 5551 5551 5550 5550 5549 5549 5548 5547 5546 5545 5543 5541 5540 5538 5537 5535 5534 5532 5530 5529 5527 5525 5523 5521 5520 5519 5517 5516 5515 5513 5511 5510 5509 5509 5509 5509 5508 5507 5506 5505 5504 5503 5503 5502 5503 5504 5505 5506 5507 5509 5511 5512 5511 5512 5512 5513 5515 5517 5519 5521 5524 5526 5528 5530 5531 5532 5535 5537 5539 5541 5543 5545 5547 5550 5553 5555 5557 5558 5560 5561 5561 5562 5563 5564 5565 5566
5548 5547 5546 5546 5545 5544 5543 5542 5541 5540 5539 5537 5535 5533 5531 5530 5528 5527 5525 5523 5521 5519 5518 5516 5515 5513 5512 5510 5508 5507 5506 5504 5503 5502 5502 5501 5500 5499 5498 5497 5496 5495 5495 5494 5494 5494 5494 5494 5495 5496 5497 5499 5500 5500 5500 5501 5502 5504 5506 5509 5512 5514 5516 5518 5520 5522 5524 5526 5529 5531 5533 5536 5538 5540 5542 5545 5548 5550 5552 5553 5554 5555 5556 5557 5559 5559 5560
5544 5543 5542 5541 5540 5539 5538 5536 5535 5533 5532 5530 5528 5526 5524 5523 5521 5520 5518 5517 5515 5514 5512 5511 5510 5508 5506 5505 5503 5502 5500 5499 5498 5496 5495 5494 5492 5491 5490 5489 5488 5488 5488 5488 5488 5487 5487 5486 5486 5486 5487 5489 5488 5488 5490 5491 5492 5494 5496 5499 5502 5505 5507 5509 5511 5513 5515 5517 5520 5523 5525 5528 5530 5532 5535 5538 5541 5543 5544 5546 5547 5549 5550 5552 5553 5554 5554
5540 5538 5537 5536 5535 5533 5532 5530 5529 5527 5525 5523 5521 5520 5518 5517 5516 5514 5513 5512 5511 5510 5508 5507 5506 5504 5502 5500 5499 5498 5496 5495 5493 5491 5489 5488 5487 5486 5485 5484 5483 5483 5483 5482 5482 5481 5480 5479 5479 5478 5479 5480 5479 5479 5481 5482 5483 5485 5487 5489 5491 5494 5497 5500 5502 5504 5506 5508 5511 5514 5517 5520 5522 5525 5527 5530 5533 5535 5537 5539 5541 5543 5544 5546 5547 5548 5549
5535 5534 5533 5532 5530 5528 5526 5524 5523 5521 5519 5518 5516 5515 5514 5513 5512 5511 5510 5509 5507 5506 5505 5503 5502 5500 5498 5497 5495 5493 5491 5489 5488 5486 5485 5484 5482 5481 5480 5479 5479 5478 5478 5478 5477 5476 5475 5474 5473 5473 5473 5473 5472 5472 5473 5473 5474 5476 5477 5479 5481 5484 5487 5490 5492 5494 5496 5498 5502 5505 5508 5511 5514 5517 5520 5522 5525 5528 5530 5533 5534 5536 5538 5540 5541 5542 5543
5531 5530 5529 5527 5525 5524 5521 5520 5518 5516 5515 5514 5513 5512 5511 5510 5509 5508 5507 5506 5505 5504 5502 5500 5498 5496 5494 5493 5491 5489 5487 5486 5485 5483 5482 5480 5478 5477 5476 5475 5475 5475 5474 5474 5474 5473 5472 5470 5469 5469 5468 5467 5466 5466 5466 5467 5467 5468 5469 5471 5472 5475 5478 5480 5482 5485 5487 5490 5493 5496 5500 5503 5507 5510 5512 5515 5518 5521 5524 5526 5528 5530 5532 5534 5535 5536 5537
5527 5525 5524 5522 5521 5519 5517 5516 5515 5513 5512 5511 5510 5509 5508 5507 5507 5506 5505 5504 5502 5501 5499 5497 5495 5493 5491 5489 5488 5486 5485 5484 5483 5482 5480 5478 5476 5475 5474 5473 5473 5472 5472 5472 5471 5470 5469 5468 5467 5466 5465 5464 5463 5463 5463 5463 5463 5464 5464 5465 5467 5468 5470 5472 5474 5477 5479 5482 5485 5488 5492 5496 5500 5503 5505 5509 5512 5515 5518 5521 5522 5524 5526 5528 5530 5531 5533
5522 5521 5520 5518 5517 5515 5514 5513 5512 5510 5510 5509 5508 5507 5506 5505 5504 5503 5503 5501 5500 5499 5497 5496 5494 5492 5490 5488 5487 5486 5485 5484 5483 5481 5480 5478 5476 5475 5474 5473 5472 5472 5471 5471 5470 5469 5468 5468 5467 5465 5464 5463 5461 5461 5460 5461 5461 5461 5462 5462 5463 5464 5466 5467 5469 5471 5473 5476 5479 5482 5485 5489 5493 5497 5500 5504 5507 5510 5513 5515 5517 5520 5522 5524 5525 5527 5528
5519 5517 5516 5514 5513 5512 5511 5510 5509 5508 5508 5507 5506 5505 5504 5503 5502 5502 5501 5500 5499 5498 5496 5495 5493 5492 5490 5488 5487 5487 5486 5485 5483 5482 5480 5479 5477 5476 5475 5474 5473 5472 5471 5470 5470 5469 5468 5467 5466 5464 5463 5461 5460 5459 5459 5459 5459 5460 5460 5461 5461 5462 5463 5464 5465 5467 5469 5471 5474 5477 5481 5485 5489 5492 5495 5499 5502 5505 5508 5511 5513 5516 5518 5520 5521 5523 5524
5516 5514 5512 5511 5511 5510 5509 5508 5507 5507 5506 5505 5504 5503 5502 5502 5501 5500 5499 5498 5498 5497 5496 5495 5494 5492 5491 5490 5489 5489 5488 5486 5485 5484 5482 5479 5478 5477 5476 5476 5474 5473 5472 5471 5470 5469 5468 5467 5466 5464 5462 5460 5459 5458 5458 5459 5459 5459 5459 5459 5459 5460 5461 5462 5463 5464 5465 5468 5471 5475 5478 5482 5485 5488 5491 5494 5498 5501 5504 5507 5510 5513 5515 5517 5518 5520 5522
5513 5511 5510 5509 5508 5508 5507 5506 5505 5505 5504 5503 5502 5502 5501 5500 5499 5499 5498 5498 5497 5497 5497 5496 5495 5494 5492 5491 5491 5490 5489 5488 5487 5485 5482 5481 5480 5480 5479 5478 5476 5475 5474 5473 5472 5471 5470 5468 5466 5465 5463 5461 5460 5459 5459 5459 5460 5460 5459 5458 5458 5458 5459 5460 5461 5462 5464 5467 5470 5473 5476 5479 5482 5485 5488 5492 5495 5499 5502 5505 5508 5510 5512 5515 5517 5519 5520
5510 5509 5508 5507 5506 5506 5505 5505 5504 5503 5503 5502 5501 5500 5500 5499 5498 5498 5497 5497 5497 5497 5497 5496 5495 5495 5494 5493 5492 5492 5490 5489 5488 5486 5484 5483 5482 5482 5481 5480 5478 5477 5476 5475 5474 5473 5471 5470 5468 5466 5464 5463 5462 5461 5461 5461 5462 5462 5461 5461 5459 5459 5458 5459 5460 5461 5463 5466 5469 5473 5475 5478 5481 5484 5488 5491 5495 5498 5501 5504 5506 5509 5511 5514 5516 5517 5519
5508 5506 5506 5505 5505 5504 5504 5503 5503 5502 5502 5501 5500 5499 5499 5498 5497 5497 5497 5497 5497 5497 5497 5496 5496 5495 5495 5494 5493 5493 5491 5490 5488 5487 5486 5485 5484 5484 5483 5482 5480 5479 5478 5477 5476 5474 5473 5471 5470 5468 5466 5465 5464 5464 5463 5464 5464 5464 5464 5464 5463 5463 5462 5462 5462 5464 5465 5468 5471 5474 5476 5479 5482 5486 5489 5492 5495 5498 5500 5503 5506 5508 5511 5513 5515 5516 5518
5505 5505 5504 5504 5504 5503 5503 5502 5502 5501 5501 5500 5500 5499 5498 5497 5497 5497 5497 5497 5497 5497 5497 5496 5496 5496 5495 5495 5494 5493 5492 5491 5489 5489 5488 5487 5486 5486 5485 5484 5483 5481 5480 5479 5477 5476 5475 5473 5472 5471 5469 5468 5468 5467 5466 5466 5466 5466 5467 5467 5467 5467 5467 5468 5468 5469 5471 5473 5475 5477 5480 5483 5485 5488 5490 5493 5495 5498 5500 5503 5505 5508 5510 5512 5513 5515 5517
5504 5503 5502 5502 5502 5502 5501 5501 5501 5500 5500 5500 5499 5499 5498 5497 5497 5497 5497 5497 5496 5496 5497 5497 5497 5496 5496 5495 5495 5494 5493 5492 5491 5490 5490 5489 5488 5488 5487 5486 5485 5484 5483 5481 5479 5478 5477 5476 5475 5474 5473 5472 5471 5470 5469 5469 5469 5469 5469 5470 5470 5470 5471 5472 5473 5474 5475 5477 5479 5481 5483 5486 5488 5489 5491 5494 5496 5498 5501 5503 5505 5507 5509 5511 5512 5514 5516
5502 5501 5501 5501 5501 5501 5500 5500 5500 5500 5500 5500 5499 5499 5498 5497 5497 5497 5496 5496 5496 5496 5496 5497 5497 5496 5496 5496 5495 5495 5494 5493 5492 5491 5491 5491 5490 5489 5489 5488 5488 5487 5485 5483 5481 5480 5479 5478 5477 5477 5476 5476 5474 5473 5472 5472 5472 5472 5473 5473 5473 5473 5474 5475 5476 5477 5478 5480 5482 5484 5486 5488 5489 5491 5493 5495 5497 5499 5501 5503 5505 5507 5508 5510 5511 5513 5515
5500 5499 5500 5500 5500 5499 5499 5499 5499 5499 5499 5499 5499 5499 5498 5497 5497 5496 5496 5496 5496 5496 5496 5496 5496 5496 5496 5496 5496 5496 5495 5494 5493 5493 5492 5492 5491 5491 5490 5490 5489 5489 5487 5485 5484 5483 5482 5480 5480 5479 5479 5478 5478 5477 5476 5476 5476 5476 5476 5476 5476 5477 5478 5478 5479 5480 5482 5483 5485 5486 5488 5490 5491 5493 5495 5496 5498 5500 5502 5503 5505 5506 5508 5509 5511 5512 5514
5497 5498 5498 5498 5498 5498 5498 5498 5498 5498 5498 5499 5499 5499 5498 5498 5497 5497 5496 5496 5496 5496 5496 5496 5496 5496 5497 5497 5496 5496 5496 5495 5495 5494 5494 5493 5492 5492 5492 5491 5491 5490 5489 5488 5487 5486 5485 5483 5483 5482 5481 5481 5480 5480 5480 5480 5480 5479 5479 5479 5479 5480 5481 5482 5483 5484 5485 5486 5488 5489 5490 5491 5493 5494 5496 5497 5499 5500 5502 5503 5504 5506 5507 5508 5510 5512 5514
5495 5495 5496 5496 5497 5497 5497 5497 5497 5497 5498 5498 5498 5498 5498 5498 5498 5497 5497 5497 5497 5497 5497 5497 5497 5497 5497 5497 5497 5496 5496 5496 5495 5495 5494 5494 5493 5493 5493 5492 5492 5491 5491 5490 5489 5488 5487 5487 5486 5485 5484 5484 5483 5482 5482 5482 5482 5482 5482 5482 5483 5483 5483 5484 5485 5486 5487 5488 5489 5490 5491 5493 5494 5495 5496 5497 5498 5500 5501 5502 5503 5505 5506 5508 5510 5512 5514
5493 5493 5494 5495 5495 5495 5496 5496 5496 5496 5497 5497 5498 5498 5498 5498 5498 5498 5497 5497 5497 5497 5497 5497 5497 5497 5497 5497 5497 5496 5496 5496 5495 5495 5495 5495 5494 5494 5493 5493 5493 5492 5492 5491 5490 5490 5489 5489 5488 5488 5487 5486 5486 5485 5485 5485 5484 5484 5484 5485 5485 5485 5486 5486 5487 5487 5488 5489 5490 5491 5492 5493 5494 5495 5496 5497 5498 5499 5500 5501 5503 5504 5506 5508 5510 5512 5514
5492 5492 5492 5493 5493 5494 5494 5495 5495 5495 5496 5497 5497 5497 5497 5497 5498 5498 5498 5497 5497 5497 5497 5497 5497 5497 5496 5496 5496 5496 5496 5496 5496 5495 5495 5495 5495 5494 5494 5493 5493 5493 5492 5492 5491 5491 5491 5490 5490 5490 5489 5489 5489 5488 5488 5487 5487 5487 5487 5487 5487 5487 5487 5488 5488 5489 5489 5490 5491 5492 5492 5493 5494 5495 5496 5497 5498 5499 5501 5502 5503 5505 5507 5508 5510 5512 5513
5490 5490 5490 5491 5491 5492 5492 5493 5494 5494 5495 5495 5496 5496 5497 5497 5497 5497 5497 5497 5497 5497 5497 5497 5497 5497 5496 5496 5496 5496 5496 5496 5496 5496 5495 5495 5495 5494 5494 5494 5493 5493 5493 5492 5492 5492 5491 5491 5491 5491 5491 5491 5491 5491 5490 5490 5489 5489 5489 5489 5489 5489 5489 5489 5490 5490 5490 5491 5491 5492 5493 5493 5494 5495 5496 5497 5498 5500 5501 5503 5504 5505 5507 5508 5509 5511 5512
5488 5487 5488 5488 5489 5490 5490 5491 5492 5492 5493 5494 5494 5495 5496 5496 5496 5497 5497 5497 5497 5497 5497 5497 5497 5497 5497 5497 5497 5496 5496 5496 5496 5496 5495 5495 5495 5495 5494 5494 5494 5493 5493 5493 5492 5492 5492 5492 5492 5492 5492 5492 5492 5492 5492 5492 5492 5491 5491 5491 5491 5491 5491 5491 5491 5492 5492 5492 5492 5493 5493 5494 5495 5496 5497 5498 5499 5500 5501 5503 5504 5505 5506 5507 5508 5510 5511
5485 5485 5485 5486 5487 5487 5488 5489 5490 5491 5491 5492 5493 5493 5494 5495 5495 5496 5496 5496 5496 5496 5496 5497 5497 5497 5497 5497 5497 5497 5497 5496 5496 5496 5496 5495 5495 5495 5494 5494 5494 5493 5493 5493 5493 5492 5492 5492 5492 5492 5492 5492 5493 5493 5493 5493 5493 5493 5493 5493 5492 5492 5493 5493 5493 5493 5493 5493 5494 5494 5495 5495 5496 5497 5497 5498 5499 5500 5501 5503 5504 5505 5506 5507 5507 5508 5509
5483 5483 5483 5483 5484 5485 5486 5487 5488 5489 5489 5490 5491 5491 5492 5493 5494 5494 5495 5495 5495 5495 5496 5496 5496 5496 5496 5496 5496 5496 5496 5496 5496 5496 5496 5496 5496 5495 5495 5494 5494 5494 5493 5493 5493 5493 5492 5492 5492 5492 5492 5492 5492 5493 5493 5493 5494 5494 5494 5494 5494 5494 5494 5494 5494 5494 5494 5495 5495 5495 5496 5496 5497 5497 5498 5498 5499 5500 5501 5502 5503 5504 5504 5505 5506 5507 5507
5481 5480 5480 5481 5481 5482 5483 5484 5485 5486 5487 5488 5488 5489 5490 5491 5492 5492 5493 5493 5494 5494 5494 5495 5495 5495 5495 5496 5496 5496 5496 5496 5496 5496 5496 5495 5495 5495 5495 5494 5494 5494 5493 5493 5493 5493 5492 5492 5492 5492 5492 5491 5492 5492 5492 5493 5493 5493 5493 5494 5494 5494 5494 5494 5494 5494 5495 5495 5495 5496 5496 5496 5497 5497 5498 5498 5499 5499 5500 5500 5501 5502 5502 5503 5504 5504 5505
5478 5478 5478 5478 5479 5479 5480 5481 5482 5483 5484 5485 5486 5487 5488 5489 5489 5490 5491 5492 5492 5493 5493 5493 5494 5494 5494 5494 5495 5495 5495 5495 5495 5495 5495 5495 5495 5494 5494 5494 5493 5493 5493 5493 5492 5492 5492 5492 5492 5491 5491 5491 5491 5491 5491 5492 5492 5492 5492 5493 5493 5493 5493 5494 5494 5494 5494 5495 5495 5495 5495 5495 5496 5496 5496 5497 5497 5498 5498 5499 5499 5499 5500 5500 5501 5501 5502
5475 5475 5475 5475 5476 5476 5477 5478 5479 5480 5481 5482 5483 5484 5485 5486 5487 5488 5488 5489 5490 5490 5491 5491 5492 5492 5493 5493 5493 5493 5493 5494 5494 5494 5494 5494 5494 5493 5493 5493 5493 5492 5492 5491 5491 5491 5491 5491 5491 5490 5490 5490 5490 5490 5490 5490 5490 5490 5491 5491 5491 5491 5492 5492 5492 5493 5493 5493 5493 5493 5494 5494 5494 5494 5494 5495 5495 5495 5496 5496 5496 5497 5497 5498 5498 5498 5499
5472 5472 5472 5472 5473 5473 5474 5475 5476 5477 5478 5479 5480 5481 5483 5483 5484 5485 5486 5486 5487 5488 5488 5489 5490 5490 5491 5491 5491 5491 5492 5492 5492 5492 5492 5492 5492 5492 5492 5492 5491 5491 5491 5490 5490 5489 5489 5489 5489 5488 5488 5488 5488 5488 5488 5488 5488 5488 5488 5488 5488 5489 5489 5489 5490 5490 5491 5491 5491 5491 5491 5491 5492 5492 5492 5492 5493 5493 5493 5493 5494 5494 5494 5494 5495 5495 5495